{"data":{"norad_id":61596,"epoch":"2026-05-25T02:22:27.932160Z","epoch_age_seconds":77163,"freshness":"FRESH","line1":"1 61596U 24188C   26145.09893440  .00000048  00000+0  91441-4 0  9999","line2":"2 61596  87.9148  10.4691 0003065  86.7434 273.4048 13.17651509 82852","mean_motion":13.17651509,"eccentricity":0.0003065,"inclination_deg":87.9148,"raan_deg":10.4691,"arg_perigee_deg":86.7434,"mean_anomaly_deg":273.4048,"bstar":9.1441e-5,"rev_number":8285,"period_min":109.2853451891,"perigee_km":1191.3828787664,"apogee_km":1196.0244170836,"semimajor_km":7571.840647925,"source":"CELESTRAK","updated_at":"2026-05-25T13:38:22.748165Z"}}